SKU254 SCEL-SCCF

Flight info

Callsign SKU254
Flight time 1h 37m
Altitude 38000
Route DILOK7B DILOK UQ814 MARGU MARGU3A
Aircraft A20N/M-SDE2E3FGHIRWXY/LB1

Departure

Time 2026-04-26 17:20
Airport Comodoro Arturo Merino Benítez International Airport (SCEL)

Arrival

Time 2026-04-26 18:58
Airport El Loa Airport (SCCF)
Time Latitude Longitude Altitude Speed Heading
2026-04-26 17:05 -33.39565 -70.79018 1591 ft 0 kts 185°
2026-04-26 17:09 -33.39547 -70.79016 1591 ft 2 kts 185°
2026-04-26 17:09 -33.39531 -70.79015 1591 ft 2 kts 185°
2026-04-26 17:10 -33.39522 -70.79014 1591 ft 1 kts 186°
2026-04-26 17:10 -33.39508 -70.79017 1591 ft 2 kts 143°
2026-04-26 17:10 -33.39498 -70.79031 1591 ft 2 kts 104°
2026-04-26 17:10 -33.39498 -70.79040 1591 ft 1 kts 82°
2026-04-26 17:11 -33.39498 -70.79047 1591 ft 0 kts 87°
2026-04-26 17:13 -33.39498 -70.79046 1591 ft 0 kts 87°
2026-04-26 17:13 -33.39498 -70.79037 1591 ft 3 kts 88°
2026-04-26 17:13 -33.39479 -70.78894 1588 ft 12 kts 27°
2026-04-26 17:14 -33.39406 -70.78840 1588 ft 12 kts 33°
2026-04-26 17:14 -33.39240 -70.78798 1585 ft 13 kts 358°
2026-04-26 17:14 -33.39145 -70.78803 1584 ft 13 kts 357°
2026-04-26 17:15 -33.38923 -70.78815 1585 ft 26 kts 358°
2026-04-26 17:15 -33.38721 -70.78823 1583 ft 28 kts
2026-04-26 17:15 -33.38529 -70.78833 1582 ft 26 kts 356°
2026-04-26 17:16 -33.38363 -70.78843 1579 ft 20 kts 358°
2026-04-26 17:16 -33.38231 -70.78851 1578 ft 18 kts 357°
2026-04-26 17:16 -33.38110 -70.78858 1578 ft 17 kts 357°
2026-04-26 17:16 -33.37994 -70.78863 1578 ft 16 kts 357°
2026-04-26 17:17 -33.37872 -70.78870 1576 ft 18 kts 358°
2026-04-26 17:17 -33.37765 -70.78877 1575 ft 12 kts 358°
2026-04-26 17:17 -33.37674 -70.78879 1575 ft 13 kts
2026-04-26 17:17 -33.37625 -70.78801 1575 ft 13 kts 90°
2026-04-26 17:18 -33.37619 -70.78692 1575 ft 13 kts 81°
2026-04-26 17:18 -33.37669 -70.78662 1575 ft 10 kts 182°
2026-04-26 17:18 -33.37738 -70.78664 1577 ft 4 kts 176°
2026-04-26 17:18 -33.37739 -70.78664 1577 ft 0 kts 176°
2026-04-26 17:19 -33.37764 -70.78663 1577 ft 24 kts 177°
2026-04-26 17:19 -33.38206 -70.78638 1579 ft 98 kts 177°
2026-04-26 17:20 -33.39099 -70.78590 1585 ft 156 kts 177°
2026-04-26 17:20 -33.39875 -70.78548 1785 ft 170 kts 177°
2026-04-26 17:20 -33.41441 -70.78461 2620 ft 175 kts 177°
2026-04-26 17:20 -33.42657 -70.78387 3305 ft 177 kts 176°
2026-04-26 17:21 -33.43886 -70.78307 3854 ft 184 kts 176°
2026-04-26 17:21 -33.45177 -70.78602 4244 ft 201 kts 211°
2026-04-26 17:21 -33.46060 -70.79969 4598 ft 224 kts 255°
2026-04-26 17:21 -33.46240 -70.81886 5065 ft 242 kts 269°
2026-04-26 17:22 -33.46253 -70.83977 5597 ft 258 kts 268°
2026-04-26 17:22 -33.46314 -70.86189 6141 ft 274 kts 266°
2026-04-26 17:22 -33.46440 -70.88474 6874 ft 281 kts 265°
2026-04-26 17:22 -33.46603 -70.90805 7642 ft 285 kts 264°
2026-04-26 17:23 -33.46745 -70.93168 8470 ft 289 kts 271°
2026-04-26 17:23 -33.46238 -70.95470 9262 ft 294 kts 300°
2026-04-26 17:23 -33.44876 -70.97272 10048 ft 296 kts 327°
2026-04-26 17:23 -33.42964 -70.98191 10688 ft 306 kts 353°
2026-04-26 17:24 -33.40786 -70.98122 11121 ft 323 kts
2026-04-26 17:24 -33.38514 -70.97839 11678 ft 335 kts
2026-04-26 17:24 -33.36154 -70.97574 12397 ft 341 kts
2026-04-26 17:24 -33.33800 -70.97331 13184 ft 345 kts
2026-04-26 17:25 -33.31406 -70.97099 13898 ft 351 kts
2026-04-26 17:25 -33.28950 -70.96870 14605 ft 356 kts
2026-04-26 17:25 -33.26473 -70.96640 15313 ft 361 kts
2026-04-26 17:25 -33.23946 -70.96403 16014 ft 365 kts
2026-04-26 17:26 -33.21426 -70.95792 16676 ft 373 kts 17°
2026-04-26 17:26 -33.19073 -70.94460 17350 ft 378 kts 31°
2026-04-26 17:26 -33.16936 -70.92693 18114 ft 379 kts 35°
2026-04-26 17:26 -33.14806 -70.90823 18764 ft 383 kts 35°
2026-04-26 17:27 -33.12655 -70.88931 19367 ft 387 kts 35°
2026-04-26 17:27 -33.10466 -70.87028 19969 ft 392 kts 34°
2026-04-26 17:27 -33.08258 -70.85135 20568 ft 396 kts 34°
2026-04-26 17:27 -33.06000 -70.83209 21171 ft 400 kts 34°
2026-04-26 17:28 -33.03744 -70.81275 21747 ft 404 kts 35°
2026-04-26 17:28 -33.01467 -70.79260 22322 ft 408 kts 36°
2026-04-26 17:28 -32.99212 -70.77245 22897 ft 412 kts 36°
2026-04-26 17:28 -32.96889 -70.75171 23479 ft 416 kts 36°
2026-04-26 17:29 -32.94579 -70.73117 24024 ft 420 kts 36°
2026-04-26 17:29 -32.92981 -70.71740 24406 ft 421 kts 31°
2026-04-26 17:29 -32.89444 -70.69852 25121 ft 419 kts 11°
2026-04-26 17:29 -32.86627 -70.69349 25678 ft 414 kts
2026-04-26 17:30 -32.83735 -70.69167 26216 ft 415 kts 358°
2026-04-26 17:30 -32.80814 -70.69023 26700 ft 418 kts 358°
2026-04-26 17:30 -32.77911 -70.68870 27181 ft 420 kts 358°
2026-04-26 17:30 -32.75016 -70.68699 27671 ft 422 kts 358°
2026-04-26 17:31 -32.72073 -70.68515 28158 ft 423 kts 358°
2026-04-26 17:31 -32.69120 -70.68322 28601 ft 425 kts 358°
2026-04-26 17:31 -32.66145 -70.68126 29020 ft 428 kts 358°
2026-04-26 17:31 -32.63191 -70.67929 29430 ft 430 kts 358°
2026-04-26 17:32 -32.60166 -70.67727 29828 ft 432 kts 358°
2026-04-26 17:32 -32.57160 -70.67526 30214 ft 434 kts 358°
2026-04-26 17:32 -32.54170 -70.67326 30585 ft 436 kts 358°
2026-04-26 17:32 -32.51116 -70.67123 30943 ft 438 kts 358°
2026-04-26 17:33 -32.48085 -70.66922 31298 ft 440 kts 357°
2026-04-26 17:33 -32.44994 -70.66716 31604 ft 442 kts 357°
2026-04-26 17:33 -32.41935 -70.66514 31929 ft 444 kts 357°
2026-04-26 17:34 -32.35724 -70.66103 32630 ft 446 kts 356°
2026-04-26 17:34 -32.32671 -70.65898 33058 ft 444 kts 356°
2026-04-26 17:34 -32.29582 -70.65692 33487 ft 441 kts 356°
2026-04-26 17:34 -32.26355 -70.65479 33892 ft 440 kts 356°
2026-04-26 17:35 -32.23133 -70.65268 34201 ft 440 kts 355°
2026-04-26 17:35 -32.20079 -70.65068 34499 ft 439 kts 355°
2026-04-26 17:35 -32.17014 -70.64866 34785 ft 439 kts 355°
2026-04-26 17:35 -32.13998 -70.64668 35077 ft 437 kts 355°
2026-04-26 17:36 -32.10942 -70.64468 35369 ft 436 kts 355°
2026-04-26 17:36 -32.07938 -70.64275 35608 ft 436 kts 354°
2026-04-26 17:36 -32.04887 -70.64075 35897 ft 435 kts 354°
2026-04-26 17:36 -32.01854 -70.63876 36171 ft 435 kts 354°
2026-04-26 17:37 -31.98813 -70.63677 36451 ft 434 kts 354°
2026-04-26 17:37 -31.95800 -70.63482 36723 ft 434 kts 354°
2026-04-26 17:37 -31.92675 -70.63284 36995 ft 434 kts 353°
2026-04-26 17:38 -31.86454 -70.62997 37627 ft 431 kts 352°
2026-04-26 17:38 -31.83371 -70.62870 37823 ft 431 kts 352°
2026-04-26 17:38 -31.80244 -70.62740 37960 ft 433 kts 352°
2026-04-26 17:38 -31.77057 -70.62608 38098 ft 434 kts 352°
2026-04-26 17:39 -31.73934 -70.62476 38256 ft 435 kts 352°
2026-04-26 17:39 -31.70777 -70.62340 38423 ft 435 kts 352°
2026-04-26 17:39 -31.64427 -70.62067 38433 ft 438 kts 351°
2026-04-26 17:40 -31.59178 -70.61844 38455 ft 442 kts 352°
2026-04-26 17:40 -31.51581 -70.61523 38440 ft 452 kts 352°
2026-04-26 17:41 -31.44782 -70.61231 38444 ft 459 kts 352°
2026-04-26 17:41 -31.37952 -70.60934 38474 ft 465 kts 353°
2026-04-26 17:42 -31.31010 -70.60119 38457 ft 479 kts 359°
2026-04-26 17:42 -31.24044 -70.58538 38460 ft 487 kts
2026-04-26 17:43 -31.17208 -70.56918 38472 ft 488 kts
2026-04-26 17:43 -31.10585 -70.55355 38468 ft 487 kts
2026-04-26 17:44 -31.03905 -70.53790 38469 ft 487 kts
2026-04-26 17:44 -30.97220 -70.52232 38458 ft 489 kts
2026-04-26 17:45 -30.90565 -70.50679 38456 ft 489 kts
2026-04-26 17:45 -30.83896 -70.49124 38465 ft 488 kts
2026-04-26 17:46 -30.77250 -70.47577 38482 ft 488 kts
2026-04-26 17:46 -30.70599 -70.46035 38455 ft 488 kts
2026-04-26 17:47 -30.65061 -70.44742 38483 ft 483 kts
2026-04-26 17:47 -30.57411 -70.42968 38506 ft 483 kts
2026-04-26 17:48 -30.50819 -70.41443 38501 ft 482 kts
2026-04-26 17:48 -30.44281 -70.39933 38517 ft 480 kts
2026-04-26 17:49 -30.37733 -70.38422 38543 ft 478 kts
2026-04-26 17:49 -30.31188 -70.36916 38538 ft 480 kts 360°
2026-04-26 17:50 -30.24684 -70.35421 38546 ft 479 kts
2026-04-26 17:50 -30.18141 -70.33914 38541 ft 477 kts 359°
2026-04-26 17:51 -30.11623 -70.32423 38551 ft 479 kts 359°
2026-04-26 17:51 -30.05105 -70.30927 38557 ft 478 kts 359°
2026-04-26 17:52 -29.98588 -70.29435 38561 ft 476 kts 359°
2026-04-26 17:52 -29.92102 -70.27955 38573 ft 476 kts 359°
2026-04-26 17:53 -29.85592 -70.26467 38614 ft 474 kts 359°
2026-04-26 17:54 -29.75899 -70.24261 38595 ft 474 kts 358°
2026-04-26 17:54 -29.69416 -70.22788 38565 ft 475 kts 358°
2026-04-26 17:55 -29.62928 -70.21313 38578 ft 474 kts 358°
2026-04-26 17:55 -29.56491 -70.19851 38599 ft 474 kts 358°
2026-04-26 17:56 -29.49997 -70.18379 38597 ft 473 kts 358°
2026-04-26 17:57 -29.37101 -70.15461 38598 ft 471 kts 358°
2026-04-26 17:57 -29.30666 -70.14008 38580 ft 470 kts 358°
2026-04-26 17:58 -29.17814 -70.11118 38573 ft 471 kts 358°
2026-04-26 17:59 -29.08159 -70.08945 38613 ft 469 kts 358°
2026-04-26 17:59 -29.01771 -70.07514 38604 ft 469 kts 358°
2026-04-26 18:00 -28.95323 -70.06071 38603 ft 471 kts 358°
2026-04-26 18:00 -28.88892 -70.04631 38592 ft 470 kts 358°
2026-04-26 18:01 -28.82486 -70.03198 38584 ft 470 kts 357°
2026-04-26 18:01 -28.76059 -70.01763 38580 ft 470 kts 358°
2026-04-26 18:02 -28.70720 -70.00575 38577 ft 471 kts 358°
2026-04-26 18:02 -28.63184 -69.98898 38565 ft 473 kts 358°
2026-04-26 18:03 -28.56735 -69.97463 38575 ft 474 kts 358°
2026-04-26 18:03 -28.50291 -69.96031 38578 ft 471 kts 358°
2026-04-26 18:04 -28.43822 -69.94752 38565 ft 469 kts 356°
2026-04-26 18:05 -28.34186 -69.92955 38537 ft 469 kts 356°
2026-04-26 18:05 -28.27699 -69.91737 38515 ft 472 kts 356°
2026-04-26 18:06 -28.21204 -69.90509 38467 ft 473 kts 356°
2026-04-26 18:06 -28.14732 -69.89281 38457 ft 471 kts 356°
2026-04-26 18:07 -28.08278 -69.88064 38462 ft 473 kts 356°
2026-04-26 18:07 -28.01771 -69.86842 38464 ft 472 kts 356°
2026-04-26 18:08 -27.95315 -69.85627 38484 ft 471 kts 356°
2026-04-26 18:08 -27.88864 -69.84417 38442 ft 471 kts 357°
2026-04-26 18:09 -27.82352 -69.83199 38450 ft 472 kts 357°
2026-04-26 18:09 -27.75889 -69.81988 38453 ft 471 kts 357°
2026-04-26 18:10 -27.69451 -69.80785 38453 ft 471 kts 357°
2026-04-26 18:10 -27.62993 -69.79581 38443 ft 471 kts 357°
2026-04-26 18:11 -27.56499 -69.78371 38447 ft 472 kts 357°
2026-04-26 18:11 -27.50011 -69.76951 38410 ft 481 kts
2026-04-26 18:12 -27.43513 -69.75106 38453 ft 482 kts
2026-04-26 18:12 -27.37010 -69.73248 38449 ft 480 kts
2026-04-26 18:13 -27.30534 -69.71407 38466 ft 479 kts
2026-04-26 18:13 -27.24039 -69.69567 38507 ft 480 kts
2026-04-26 18:14 -27.17597 -69.67744 38520 ft 479 kts
2026-04-26 18:14 -27.11108 -69.65911 38509 ft 480 kts
2026-04-26 18:15 -27.04614 -69.64075 38508 ft 479 kts
2026-04-26 18:15 -26.98450 -69.62337 38519 ft 480 kts
2026-04-26 18:16 -26.91966 -69.60513 38519 ft 481 kts
2026-04-26 18:16 -26.82273 -69.57783 38565 ft 479 kts
2026-04-26 18:17 -26.75803 -69.55968 38570 ft 478 kts
2026-04-26 18:17 -26.69327 -69.54153 38571 ft 480 kts
2026-04-26 18:18 -26.62845 -69.52336 38587 ft 479 kts
2026-04-26 18:18 -26.56402 -69.50532 38574 ft 478 kts
2026-04-26 18:19 -26.49926 -69.48721 38605 ft 478 kts
2026-04-26 18:19 -26.43482 -69.46922 38585 ft 477 kts
2026-04-26 18:20 -26.37024 -69.45124 38594 ft 479 kts
2026-04-26 18:20 -26.31657 -69.43626 38619 ft 478 kts
2026-04-26 18:21 -26.24090 -69.41520 38610 ft 478 kts
2026-04-26 18:21 -26.17664 -69.39736 38631 ft 478 kts
2026-04-26 18:22 -26.11184 -69.37936 38664 ft 477 kts
2026-04-26 18:22 -26.04759 -69.36154 38668 ft 477 kts
2026-04-26 18:23 -25.98278 -69.34360 38668 ft 477 kts
2026-04-26 18:23 -25.91864 -69.32585 38686 ft 477 kts
2026-04-26 18:24 -25.85421 -69.30806 38695 ft 477 kts
2026-04-26 18:24 -25.78974 -69.29027 38712 ft 478 kts
2026-04-26 18:25 -25.72534 -69.27250 38700 ft 475 kts
2026-04-26 18:25 -25.66122 -69.25485 38720 ft 475 kts
2026-04-26 18:26 -25.59695 -69.23727 38715 ft 473 kts
2026-04-26 18:26 -25.53278 -69.22414 38717 ft 468 kts 359°
2026-04-26 18:27 -25.46839 -69.21288 38714 ft 469 kts 359°
2026-04-26 18:27 -25.40374 -69.20156 38716 ft 469 kts 359°
2026-04-26 18:28 -25.33960 -69.19036 38697 ft 470 kts 360°
2026-04-26 18:28 -25.27493 -69.17904 38701 ft 469 kts 359°
2026-04-26 18:29 -25.21019 -69.16773 38708 ft 469 kts 359°
2026-04-26 18:29 -25.14571 -69.15647 38727 ft 469 kts 360°
2026-04-26 18:30 -25.08155 -69.14529 38720 ft 470 kts 360°
2026-04-26 18:30 -25.01672 -69.13399 38734 ft 469 kts 360°
2026-04-26 18:31 -24.95241 -69.12282 38748 ft 470 kts 360°
2026-04-26 18:31 -24.88772 -69.11158 38720 ft 470 kts
2026-04-26 18:32 -24.82313 -69.10038 38705 ft 468 kts
2026-04-26 18:32 -24.75872 -69.08913 38706 ft 468 kts
2026-04-26 18:33 -24.69463 -69.07768 38692 ft 468 kts
2026-04-26 18:33 -24.63030 -69.06619 38670 ft 469 kts
2026-04-26 18:34 -24.56559 -69.05465 38634 ft 470 kts
2026-04-26 18:34 -24.50090 -69.04314 38634 ft 470 kts
2026-04-26 18:35 -24.43651 -69.03172 38628 ft 470 kts
2026-04-26 18:35 -24.37152 -69.02020 38634 ft 470 kts
2026-04-26 18:36 -24.30690 -69.00875 38607 ft 470 kts
2026-04-26 18:36 -24.24231 -68.99732 38595 ft 469 kts
2026-04-26 18:37 -24.17815 -68.98598 38579 ft 470 kts
2026-04-26 18:37 -24.14550 -68.98023 38376 ft 471 kts
2026-04-26 18:37 -24.11371 -68.97457 38021 ft 462 kts
2026-04-26 18:38 -24.08216 -68.96894 37577 ft 454 kts
2026-04-26 18:38 -24.05117 -68.96345 37011 ft 449 kts
2026-04-26 18:38 -24.02027 -68.95802 36342 ft 447 kts
2026-04-26 18:38 -23.98988 -68.95267 35640 ft 447 kts
2026-04-26 18:39 -23.95904 -68.94727 34942 ft 446 kts
2026-04-26 18:39 -23.92841 -68.94190 34317 ft 443 kts
2026-04-26 18:39 -23.89819 -68.93659 33655 ft 442 kts
2026-04-26 18:39 -23.86780 -68.93125 32944 ft 442 kts
2026-04-26 18:40 -23.83744 -68.92595 32281 ft 443 kts
2026-04-26 18:40 -23.80686 -68.92061 31629 ft 443 kts
2026-04-26 18:40 -23.77672 -68.91531 31158 ft 439 kts
2026-04-26 18:40 -23.74648 -68.90997 30711 ft 434 kts
2026-04-26 18:41 -23.71715 -68.90484 30275 ft 430 kts
2026-04-26 18:41 -23.68759 -68.89964 29821 ft 425 kts
2026-04-26 18:41 -23.65850 -68.89454 29385 ft 421 kts
2026-04-26 18:41 -23.62968 -68.88950 28940 ft 418 kts
2026-04-26 18:42 -23.60130 -68.88454 28501 ft 414 kts
2026-04-26 18:42 -23.57278 -68.87955 28046 ft 411 kts
2026-04-26 18:42 -23.54468 -68.87463 27612 ft 408 kts
2026-04-26 18:42 -23.51653 -68.86973 27148 ft 405 kts
2026-04-26 18:43 -23.48893 -68.86491 26698 ft 403 kts
2026-04-26 18:43 -23.46127 -68.86008 26275 ft 400 kts
2026-04-26 18:43 -23.43368 -68.85527 25837 ft 397 kts
2026-04-26 18:43 -23.40674 -68.85059 25399 ft 395 kts
2026-04-26 18:44 -23.37959 -68.84586 24957 ft 392 kts
2026-04-26 18:44 -23.35269 -68.84202 24522 ft 387 kts
2026-04-26 18:44 -23.32596 -68.84003 24086 ft 383 kts 356°
2026-04-26 18:44 -23.29934 -68.83907 23661 ft 380 kts 356°
2026-04-26 18:45 -23.27283 -68.83820 23221 ft 378 kts 356°
2026-04-26 18:45 -23.24661 -68.83736 22779 ft 377 kts 356°
2026-04-26 18:45 -23.22050 -68.83651 22353 ft 375 kts 357°
2026-04-26 18:45 -23.19448 -68.83566 21919 ft 374 kts 357°
2026-04-26 18:46 -23.16852 -68.83480 21468 ft 373 kts 357°
2026-04-26 18:46 -23.14247 -68.83393 21012 ft 372 kts 358°
2026-04-26 18:46 -23.11663 -68.83308 20553 ft 372 kts 358°
2026-04-26 18:46 -23.09064 -68.83221 20092 ft 371 kts 358°
2026-04-26 18:47 -23.06482 -68.83135 19643 ft 369 kts 359°
2026-04-26 18:47 -23.03921 -68.83049 19202 ft 368 kts 359°
2026-04-26 18:47 -23.01371 -68.82961 18771 ft 365 kts 359°
2026-04-26 18:47 -22.98859 -68.82831 18345 ft 364 kts
2026-04-26 18:48 -22.96330 -68.82622 17933 ft 362 kts
2026-04-26 18:48 -22.93811 -68.82407 17497 ft 361 kts
2026-04-26 18:48 -22.91327 -68.82193 17061 ft 359 kts
2026-04-26 18:48 -22.88846 -68.81982 16628 ft 358 kts
2026-04-26 18:49 -22.86341 -68.81769 16203 ft 356 kts
2026-04-26 18:49 -22.83903 -68.81562 15784 ft 354 kts
2026-04-26 18:49 -22.81443 -68.81353 15361 ft 351 kts
2026-04-26 18:49 -22.79030 -68.81149 14961 ft 348 kts
2026-04-26 18:50 -22.76602 -68.80943 14553 ft 346 kts
2026-04-26 18:50 -22.74236 -68.80743 14133 ft 344 kts
2026-04-26 18:50 -22.71848 -68.80541 13695 ft 341 kts
2026-04-26 18:50 -22.69473 -68.80339 13274 ft 338 kts
2026-04-26 18:51 -22.67150 -68.80142 12891 ft 333 kts
2026-04-26 18:51 -22.64944 -68.79706 12793 ft 308 kts 20°
2026-04-26 18:51 -22.63166 -68.78622 12739 ft 288 kts 38°
2026-04-26 18:51 -22.61685 -68.77220 12700 ft 272 kts 41°
2026-04-26 18:52 -22.60335 -68.75871 12668 ft 258 kts 42°
2026-04-26 18:52 -22.59053 -68.74593 12637 ft 244 kts 41°
2026-04-26 18:52 -22.57815 -68.73375 12607 ft 236 kts 41°
2026-04-26 18:52 -22.56602 -68.72190 12535 ft 236 kts 41°
2026-04-26 18:53 -22.55377 -68.70998 12419 ft 236 kts 41°
2026-04-26 18:53 -22.54135 -68.69839 12310 ft 231 kts 33°
2026-04-26 18:53 -22.52677 -68.69338 12104 ft 217 kts 354°
2026-04-26 18:53 -22.51372 -68.69975 11807 ft 208 kts 311°
2026-04-26 18:54 -22.50868 -68.71372 11487 ft 202 kts 271°
2026-04-26 18:54 -22.50938 -68.72869 11208 ft 198 kts 268°
2026-04-26 18:54 -22.50962 -68.74365 10862 ft 198 kts 271°
2026-04-26 18:54 -22.50926 -68.75845 10549 ft 196 kts 272°
2026-04-26 18:55 -22.50858 -68.77287 10292 ft 191 kts 274°
2026-04-26 18:55 -22.50776 -68.78692 10030 ft 185 kts 274°
2026-04-26 18:55 -22.50690 -68.80047 9782 ft 176 kts 274°
2026-04-26 18:55 -22.50607 -68.81315 9568 ft 162 kts 274°
2026-04-26 18:56 -22.50531 -68.82501 9335 ft 157 kts 274°
2026-04-26 18:56 -22.50455 -68.83669 9105 ft 157 kts 274°
2026-04-26 18:56 -22.50384 -68.84833 8800 ft 156 kts 274°
2026-04-26 18:56 -22.50313 -68.86005 8447 ft 155 kts 274°
2026-04-26 18:57 -22.50235 -68.87151 8091 ft 154 kts 275°
2026-04-26 18:57 -22.50180 -68.87922 7863 ft 152 kts 274°
2026-04-26 18:57 -22.50071 -68.89397 7607 ft 142 kts 275°
2026-04-26 18:57 -22.50008 -68.90375 7533 ft 113 kts 275°
2026-04-26 18:58 -22.49964 -68.90992 7493 ft 50 kts 274°
2026-04-26 18:58 -22.49868 -68.91213 7476 ft 26 kts 305°
2026-04-26 18:58 -22.49813 -68.91299 7470 ft 5 kts 306°
2026-04-26 18:58 -22.49778 -68.91290 7470 ft 6 kts 69°
2026-04-26 18:59 -22.49775 -68.91257 7472 ft 2 kts 93°
2026-04-26 18:59 -22.49776 -68.91241 7473 ft 5 kts 94°
2026-04-26 18:59 -22.49784 -68.91130 7480 ft 17 kts 94°
2026-04-26 18:59 -22.49792 -68.91022 7489 ft 11 kts 95°
2026-04-26 19:00 -22.49784 -68.90961 7492 ft 6 kts 47°
2026-04-26 19:00 -22.49732 -68.90947 7493 ft 10 kts
2026-04-26 19:00 -22.49652 -68.90932 7493 ft 9 kts 62°
2026-04-26 19:00 -22.49653 -68.90868 7496 ft 6 kts 90°
2026-04-26 19:01 -22.49654 -68.90834 7498 ft 4 kts 92°
2026-04-26 19:01 -22.49645 -68.90799 7500 ft 4 kts
2026-04-26 19:01 -22.49608 -68.90799 7500 ft 5 kts
2026-04-26 19:01 -22.49601 -68.90798 7500 ft 0 kts
2026-04-26 19:02 -22.49598 -68.90798 7500 ft 0 kts